Time,TemperatureF,DewpointF,PressureIn,WindDirection,WindDirectionDegrees,WindSpeedMPH,WindSpeedGustMPH,Humidity,HourlyPrecipIn,Conditions,Clouds,dailyrainin,SoftwareType,DateUTC
2013-05-06 00:02:00,54.0,21.0,-100.00,WSW,237,18.0,27.0,27,-99.99,,,-99.99,,2013-05-06 06:02:00,
2013-05-06 00:12:00,54.0,22.0,-100.00,WSW,250,18.0,25.0,28,-99.99,,,-99.99,,2013-05-06 06:12:00,
2013-05-06 00:21:00,54.0,22.0,-100.00,WSW,238,14.0,20.0,29,-99.99,,,-99.99,,2013-05-06 06:21:00,
2013-05-06 00:31:00,53.0,23.0,-100.00,WSW,240,17.0,25.0,31,-99.99,,,-99.99,,2013-05-06 06:31:00,
2013-05-06 00:41:00,53.0,24.0,-100.00,WSW,242,18.0,28.0,32,-99.99,,,-99.99,,2013-05-06 06:41:00,
2013-05-06 00:51:00,53.0,24.0,-100.00,WSW,245,19.0,24.0,32,-99.99,,,-99.99,,2013-05-06 06:51:00,
2013-05-06 01:01:00,53.0,24.0,-100.00,WSW,242,19.0,23.0,33,-99.99,,,-99.99,,2013-05-06 07:01:00,
2013-05-06 01:11:00,53.0,25.0,-100.00,SW,235,20.0,26.0,33,-99.99,,,-99.99,,2013-05-06 07:11:00,
2013-05-06 01:22:00,52.0,25.0,-100.00,WSW,250,20.0,25.0,34,-99.99,,,-99.99,,2013-05-06 07:22:00,
2013-05-06 01:31:00,52.0,25.0,-100.00,WSW,244,15.0,22.0,34,-99.99,,,-99.99,,2013-05-06 07:31:00,
2013-05-06 01:42:00,52.0,25.0,-100.00,WSW,241,17.0,22.0,34,-99.99,,,-99.99,,2013-05-06 07:42:00,
2013-05-06 01:52:00,52.0,25.0,-100.00,WSW,241,16.0,24.0,34,-99.99,,,-99.99,,2013-05-06 07:52:00,
2013-05-06 02:01:00,52.0,25.0,-100.00,WSW,248,18.0,21.0,34,-99.99,,,-99.99,,2013-05-06 08:01:00,
2013-05-06 02:12:00,51.0,25.0,-100.00,WSW,251,17.0,20.0,35,-99.99,,,-99.99,,2013-05-06 08:12:00,
2013-05-06 02:22:00,51.0,25.0,-100.00,WSW,248,16.0,20.0,35,-99.99,,,-99.99,,2013-05-06 08:22:00,
2013-05-06 02:31:00,51.0,25.0,-100.00,WSW,253,15.0,17.0,36,-99.99,,,-99.99,,2013-05-06 08:31:00,
2013-05-06 02:41:00,51.0,25.0,-100.00,WSW,251,12.0,17.0,36,-99.99,,,-99.99,,2013-05-06 08:41:00,
2013-05-06 02:52:00,51.0,25.0,-100.00,WSW,248,17.0,22.0,35,-99.99,,,-99.99,,2013-05-06 08:52:00,
2013-05-06 03:01:00,51.0,25.0,-100.00,WSW,248,11.0,20.0,36,-99.99,,,-99.99,,2013-05-06 09:01:00,
2013-05-06 03:11:00,51.0,26.0,-100.00,WSW,253,12.0,13.0,37,-99.99,,,-99.99,,2013-05-06 09:11:00,
2013-05-06 03:22:00,50.0,26.0,-100.00,WSW,255,12.0,14.0,38,-99.99,,,-99.99,,2013-05-06 09:22:00,
2013-05-06 03:32:00,50.0,26.0,-100.00,WSW,251,11.0,13.0,38,-99.99,,,-99.99,,2013-05-06 09:32:00,
2013-05-06 03:42:00,50.0,26.0,-100.00,WSW,250,10.0,13.0,39,-99.99,,,-99.99,,2013-05-06 09:42:00,
2013-05-06 03:53:00,50.0,26.0,-100.00,WSW,254,9.0,10.0,39,-99.99,,,-99.99,,2013-05-06 09:53:00,
2013-05-06 04:02:00,49.0,27.0,-100.00,WSW,249,9.0,10.0,41,-99.99,,,-99.99,,2013-05-06 10:02:00,
2013-05-06 04:12:00,50.0,26.0,-100.00,WSW,247,12.0,13.0,39,-99.99,,,-99.99,,2013-05-06 10:12:00,
2013-05-06 04:22:00,50.0,26.0,-100.00,SW,234,13.0,16.0,38,-99.99,,,-99.99,,2013-05-06 10:22:00,
2013-05-06 04:32:00,50.0,26.0,-100.00,WSW,242,12.0,17.0,39,-99.99,,,-99.99,,2013-05-06 10:32:00,
2013-05-06 04:41:00,49.0,28.0,-100.00,SW,234,17.0,24.0,42,-99.99,,,-99.99,,2013-05-06 10:41:00,
2013-05-06 04:52:00,49.0,28.0,-100.00,WSW,241,12.0,21.0,43,-99.99,,,-99.99,,2013-05-06 10:52:00,
2013-05-06 05:02:00,49.0,29.0,-100.00,WSW,243,14.0,25.0,44,-99.99,,,-99.99,,2013-05-06 11:02:00,
2013-05-06 05:11:00,49.0,30.0,-100.00,WSW,241,13.0,18.0,46,-99.99,,,-99.99,,2013-05-06 11:11:00,
2013-05-06 05:22:00,48.0,30.0,-100.00,SW,234,9.0,16.0,48,-99.99,,,-99.99,,2013-05-06 11:22:00,
2013-05-06 05:31:00,48.0,30.0,-100.00,WSW,239,9.0,11.0,48,-99.99,,,-99.99,,2013-05-06 11:31:00,
2013-05-06 05:42:00,48.0,29.0,-100.00,WSW,238,7.0,9.0,47,-99.99,,,-99.99,,2013-05-06 11:42:00,
2013-05-06 05:52:00,49.0,29.0,-100.00,WSW,246,9.0,9.0,45,-99.99,,,-99.99,,2013-05-06 11:52:00,
2013-05-06 06:01:00,47.0,30.0,-100.00,West,276,7.0,8.0,50,-99.99,,,-99.99,,2013-05-06 12:01:00,
2013-05-06 06:12:00,47.0,30.0,-100.00,SW,233,6.0,9.0,51,-99.99,,,-99.99,,2013-05-06 12:12:00,
2013-05-06 06:21:00,47.0,30.0,-100.00,SSW,210,4.0,7.0,50,-99.99,,,-99.99,,2013-05-06 12:21:00,
2013-05-06 06:31:00,46.0,29.0,-100.00,SSW,199,4.0,5.0,51,-99.99,,,-99.99,,2013-05-06 12:31:00,
2013-05-06 06:41:00,46.0,29.0,-100.00,SSW,199,4.0,5.0,51,-99.99,,,-99.99,,2013-05-06 12:41:00,
2013-05-06 06:50:00,46.0,29.0,-100.00,SSE,166,5.0,7.0,50,-99.99,,,-99.99,,2013-05-06 12:50:00,
2013-05-06 06:51:00,45.0,29.0,-100.00,SSE,164,7.0,7.0,52,-99.99,,,-99.99,,2013-05-06 12:51:00,
2013-05-06 07:01:00,45.0,29.0,-100.00,SSE,162,7.0,7.0,52,-99.99,,,-99.99,,2013-05-06 13:01:00,
2013-05-06 07:11:00,46.0,29.0,-100.00,SSE,158,7.0,7.0,51,-99.99,,,-99.99,,2013-05-06 13:11:00,
2013-05-06 07:21:00,46.0,29.0,-100.00,SSE,166,5.0,7.0,50,-99.99,,,-99.99,,2013-05-06 13:21:00,
2013-05-06 07:31:00,46.0,29.0,-100.00,SSE,166,5.0,7.0,50,-99.99,,,-99.99,,2013-05-06 13:31:00,
2013-05-06 07:42:00,46.0,29.0,-100.00,SSE,166,5.0,7.0,50,-99.99,,,-99.99,,2013-05-06 13:42:00,
2013-05-06 08:01:00,47.0,30.0,-100.00,ENE,68,0.0,4.0,50,-99.99,,,-99.99,,2013-05-06 14:01:00,
2013-05-06 08:11:00,48.0,29.0,-100.00,East,88,1.0,2.0,47,-99.99,,,-99.99,,2013-05-06 14:11:00,
2013-05-06 08:21:00,50.0,30.0,-100.00,SE,129,0.0,2.0,45,-99.99,,,-99.99,,2013-05-06 14:21:00,
2013-05-06 08:32:00,49.0,30.0,-100.00,ESE,121,3.0,3.0,47,-99.99,,,-99.99,,2013-05-06 14:32:00,
2013-05-06 08:42:00,51.0,29.0,-100.00,ENE,72,3.0,3.0,42,-99.99,,,-99.99,,2013-05-06 14:42:00,
2013-05-06 08:51:00,53.0,29.0,-100.00,SE,131,4.0,5.0,39,-99.99,,,-99.99,,2013-05-06 14:51:00,
2013-05-06 09:01:00,53.0,28.0,-100.00,SE,141,1.0,5.0,37,-99.99,,,-99.99,,2013-05-06 15:01:00,
2013-05-06 09:11:00,53.0,27.0,-100.00,ENE,65,4.0,5.0,37,-99.99,,,-99.99,,2013-05-06 15:11:00,
2013-05-06 09:21:00,53.0,27.0,-100.00,ENE,62,4.0,5.0,37,-99.99,,,-99.99,,2013-05-06 15:21:00,
2013-05-06 09:33:00,53.0,27.0,-100.00,East,92,2.0,5.0,35,-99.99,,,-99.99,,2013-05-06 15:33:00,
2013-05-06 09:42:00,53.0,28.0,-100.00,ENE,64,5.0,6.0,37,-99.99,,,-99.99,,2013-05-06 15:42:00,
2013-05-06 09:53:00,53.0,29.0,-100.00,ENE,63,5.0,5.0,38,-99.99,,,-99.99,,2013-05-06 15:53:00,
2013-05-06 10:02:00,54.0,28.0,-100.00,NNW,339,2.0,8.0,37,-99.99,,,-99.99,,2013-05-06 16:02:00,
2013-05-06 10:13:00,54.0,27.0,-100.00,NE,37,5.0,8.0,34,-99.99,,,-99.99,,2013-05-06 16:13:00,
2013-05-06 10:23:00,55.0,28.0,-100.00,NE,35,3.0,8.0,34,-99.99,,,-99.99,,2013-05-06 16:23:00,
2013-05-06 10:32:00,55.0,27.0,-100.00,NE,43,8.0,12.0,33,-99.99,,,-99.99,,2013-05-06 16:32:00,
2013-05-06 10:41:00,57.0,28.0,-100.00,East,84,8.0,13.0,33,-99.99,,,-99.99,,2013-05-06 16:41:00,
2013-05-06 10:52:00,56.0,26.0,-100.00,West,266,2.0,5.0,31,-99.99,,,-99.99,,2013-05-06 16:52:00,
2013-05-06 11:02:00,57.0,26.0,-100.00,SE,131,3.0,8.0,30,-99.99,,,-99.99,,2013-05-06 17:02:00,
2013-05-06 11:12:00,57.0,26.0,-100.00,SW,219,5.0,10.0,30,-99.99,,,-99.99,,2013-05-06 17:12:00,
2013-05-06 11:23:00,56.0,26.0,-100.00,NW,314,4.0,8.0,31,-99.99,,,-99.99,,2013-05-06 17:23:00,
2013-05-06 11:31:00,56.0,26.0,-100.00,NW,314,4.0,8.0,31,-99.99,,,-99.99,,2013-05-06 17:31:00,
2013-05-06 11:42:00,57.0,26.0,-100.00,ESE,112,5.0,8.0,29,-99.99,,,-99.99,,2013-05-06 17:42:00,
2013-05-06 11:52:00,56.0,26.0,-100.00,WSW,258,7.0,8.0,30,-99.99,,,-99.99,,2013-05-06 17:52:00,
2013-05-06 12:01:00,56.0,26.0,-100.00,WSW,249,8.0,9.0,31,-99.99,,,-99.99,,2013-05-06 18:01:00,
2013-05-06 12:12:00,55.0,30.0,-100.00,WNW,292,10.0,14.0,38,-99.99,,,-99.99,,2013-05-06 18:12:00,
2013-05-06 12:21:00,53.0,28.0,-100.00,NW,305,10.0,15.0,37,-99.99,,,-99.99,,2013-05-06 18:21:00,
2013-05-06 12:31:00,53.0,28.0,-100.00,NW,305,10.0,15.0,37,-99.99,,,-99.99,,2013-05-06 18:31:00,
2013-05-06 12:43:00,51.0,32.0,-100.00,South,190,3.0,11.0,48,-99.99,,,-99.99,,2013-05-06 18:43:00,
2013-05-06 12:52:00,51.0,34.0,-100.00,SE,125,5.0,8.0,52,-99.99,,,-99.99,,2013-05-06 18:52:00,
2013-05-06 13:01:00,50.0,33.0,-100.00,ENE,59,5.0,11.0,52,-99.99,,,-99.99,,2013-05-06 19:01:00,
2013-05-06 13:11:00,51.0,38.0,-100.00,East,86,9.0,11.0,60,-99.99,,,-99.99,,2013-05-06 19:11:00,
2013-05-06 13:22:00,52.0,36.0,-100.00,ESE,103,11.0,13.0,54,-99.99,,,-99.99,,2013-05-06 19:22:00,
2013-05-06 13:32:00,53.0,35.0,-100.00,ENE,77,8.0,11.0,50,-99.99,,,-99.99,,2013-05-06 19:32:00,
2013-05-06 13:41:00,53.0,33.0,-100.00,ENE,65,7.0,10.0,47,-99.99,,,-99.99,,2013-05-06 19:41:00,
2013-05-06 13:52:00,55.0,33.0,-100.00,North,9,6.0,9.0,43,-99.99,,,-99.99,,2013-05-06 19:52:00,
2013-05-06 14:01:00,56.0,31.0,-100.00,NE,50,5.0,9.0,38,-99.99,,,-99.99,,2013-05-06 20:01:00,
2013-05-06 14:11:00,58.0,27.0,-100.00,South,182,7.0,15.0,30,-99.99,,,-99.99,,2013-05-06 20:11:00,
2013-05-06 14:21:00,56.0,26.0,-100.00,South,179,13.0,18.0,31,-99.99,,,-99.99,,2013-05-06 20:21:00,
2013-05-06 14:32:00,54.0,30.0,-100.00,SSW,198,12.0,15.0,40,-99.99,,,-99.99,,2013-05-06 20:32:00,
2013-05-06 14:41:00,50.0,34.0,-100.00,ESE,118,5.0,11.0,55,-99.99,,,-99.99,,2013-05-06 20:41:00,
2013-05-06 14:52:00,51.0,36.0,-100.00,WSW,245,6.0,8.0,56,-99.99,,,-99.99,,2013-05-06 20:52:00,
2013-05-06 15:01:00,52.0,36.0,-100.00,West,274,5.0,10.0,55,-99.99,,,-99.99,,2013-05-06 21:01:00,
2013-05-06 15:11:00,53.0,36.0,-100.00,West,273,8.0,10.0,51,-99.99,,,-99.99,,2013-05-06 21:11:00,
2013-05-06 15:21:00,54.0,33.0,-100.00,WSW,241,11.0,16.0,43,-99.99,,,-99.99,,2013-05-06 21:21:00,
2013-05-06 15:32:00,53.0,31.0,-100.00,West,277,19.0,22.0,43,-99.99,,,-99.99,,2013-05-06 21:32:00,
2013-05-06 15:42:00,52.0,32.0,-100.00,West,269,16.0,20.0,46,-99.99,,,-99.99,,2013-05-06 21:42:00,
2013-05-06 15:53:00,52.0,36.0,-100.00,WSW,253,12.0,18.0,53,-99.99,,,-99.99,,2013-05-06 21:53:00,
2013-05-06 16:02:00,50.0,36.0,-100.00,NNW,336,6.0,9.0,56,-99.99,,,-99.99,,2013-05-06 22:02:00,
2013-05-06 16:12:00,51.0,33.0,-100.00,West,268,11.0,20.0,49,-99.99,,,-99.99,,2013-05-06 22:12:00,
2013-05-06 16:22:00,52.0,32.0,-100.00,East,93,4.0,8.0,46,-99.99,,,-99.99,,2013-05-06 22:22:00,
2013-05-06 16:33:00,53.0,32.0,-100.00,East,99,1.0,7.0,44,-99.99,,,-99.99,,2013-05-06 22:33:00,
2013-05-06 16:45:00,52.0,32.0,-100.00,East,96,8.0,11.0,45,-99.99,,,-99.99,,2013-05-06 22:45:00,
2013-05-06 16:52:00,52.0,36.0,-100.00,ESE,112,10.0,16.0,55,-99.99,,,-99.99,,2013-05-06 22:52:00,
2013-05-06 17:02:00,50.0,36.0,-100.00,ESE,114,8.0,14.0,58,-99.99,,,-99.99,,2013-05-06 23:02:00,
2013-05-06 17:11:00,50.0,38.0,-100.00,ESE,106,9.0,13.0,61,-99.99,,,-99.99,,2013-05-06 23:11:00,
2013-05-06 17:22:00,50.0,37.0,-100.00,ESE,103,7.0,13.0,61,-99.99,,,-99.99,,2013-05-06 23:22:00,
2013-05-06 17:31:00,50.0,36.0,-100.00,East,94,8.0,10.0,59,-99.99,,,-99.99,,2013-05-06 23:31:00,
2013-05-06 17:41:00,50.0,37.0,-100.00,East,90,8.0,10.0,60,-99.99,,,-99.99,,2013-05-06 23:41:00,
2013-05-06 17:52:00,49.0,36.0,-100.00,East,99,7.0,11.0,60,-99.99,,,-99.99,,2013-05-06 23:52:00,
2013-05-06 18:01:00,49.0,35.0,-100.00,ESE,117,6.0,10.0,58,-99.99,,,-99.99,,2013-05-07 00:01:00,
2013-05-06 18:11:00,49.0,35.0,-100.00,ESE,109,6.0,8.0,58,-99.99,,,-99.99,,2013-05-07 00:11:00,
2013-05-06 18:21:00,50.0,37.0,-100.00,ESE,102,9.0,11.0,60,-99.99,,,-99.99,,2013-05-07 00:21:00,
2013-05-06 18:31:00,50.0,35.0,-100.00,East,92,7.0,10.0,56,-99.99,,,-99.99,,2013-05-07 00:31:00,
2013-05-06 18:41:00,50.0,35.0,-100.00,East,92,7.0,10.0,56,-99.99,,,-99.99,,2013-05-07 00:41:00,
2013-05-06 18:51:00,50.0,35.0,-100.00,ESE,115,7.0,10.0,56,-99.99,,,-99.99,,2013-05-07 00:51:00,
2013-05-06 19:01:00,50.0,35.0,-100.00,ESE,110,9.0,11.0,55,-99.99,,,-99.99,,2013-05-07 01:01:00,
2013-05-06 19:11:00,49.0,37.0,-100.00,East,84,12.0,14.0,63,-99.99,,,-99.99,,2013-05-07 01:11:00,
2013-05-06 19:21:00,49.0,38.0,-100.00,East,89,9.0,13.0,66,-99.99,,,-99.99,,2013-05-07 01:21:00,
2013-05-06 19:31:00,48.0,38.0,-100.00,East,90,11.0,14.0,66,-99.99,,,-99.99,,2013-05-07 01:31:00,
2013-05-06 19:42:00,48.0,38.0,-100.00,East,85,13.0,14.0,67,-99.99,,,-99.99,,2013-05-07 01:42:00,
2013-05-06 19:52:00,48.0,38.0,-100.00,East,90,12.0,17.0,70,-99.99,,,-99.99,,2013-05-07 01:52:00,
2013-05-06 20:02:00,47.0,38.0,-100.00,East,84,10.0,12.0,71,-99.99,,,-99.99,,2013-05-07 02:02:00,
2013-05-06 20:11:00,47.0,38.0,-100.00,ESE,109,6.0,10.0,69,-99.99,,,-99.99,,2013-05-07 02:11:00,
2013-05-06 20:21:00,47.0,38.0,-100.00,ESE,104,9.0,10.0,70,-99.99,,,-99.99,,2013-05-07 02:21:00,
2013-05-06 20:31:00,46.0,38.0,-100.00,ESE,117,4.0,6.0,70,-99.99,,,-99.99,,2013-05-07 02:31:00,
2013-05-06 20:41:00,46.0,38.0,-100.00,ESE,117,4.0,6.0,70,-99.99,,,-99.99,,2013-05-07 02:41:00,
2013-05-06 20:51:00,47.0,38.0,-100.00,SE,146,5.0,5.0,70,-99.99,,,-99.99,,2013-05-07 02:51:00,
2013-05-06 21:01:00,47.0,37.0,-100.00,SSE,167,7.0,11.0,68,-99.99,,,-99.99,,2013-05-07 03:01:00,
2013-05-06 21:11:00,47.0,36.0,-100.00,South,170,6.0,9.0,64,-99.99,,,-99.99,,2013-05-07 03:11:00,
2013-05-06 21:21:00,47.0,36.0,-100.00,SSE,162,4.0,6.0,67,-99.99,,,-99.99,,2013-05-07 03:21:00,
2013-05-06 21:32:00,46.0,36.0,-100.00,SSE,167,2.0,3.0,68,-99.99,,,-99.99,,2013-05-07 03:32:00,
2013-05-06 21:42:00,46.0,36.0,-100.00,SSE,151,3.0,4.0,67,-99.99,,,-99.99,,2013-05-07 03:42:00,
2013-05-06 21:53:00,46.0,37.0,-100.00,West,260,10.0,12.0,69,-99.99,,,-99.99,,2013-05-07 03:53:00,
2013-05-06 22:02:00,47.0,36.0,-100.00,SW,227,10.0,14.0,66,-99.99,,,-99.99,,2013-05-07 04:02:00,
2013-05-06 22:12:00,46.0,36.0,-100.00,SSW,204,10.0,16.0,68,-99.99,,,-99.99,,2013-05-07 04:12:00,
2013-05-06 22:23:00,46.0,35.0,-100.00,SW,222,14.0,19.0,65,-99.99,,,-99.99,,2013-05-07 04:23:00,
2013-05-06 22:33:00,46.0,35.0,-100.00,WSW,245,12.0,22.0,65,-99.99,,,-99.99,,2013-05-07 04:33:00,
2013-05-06 22:42:00,46.0,35.0,-100.00,WSW,249,12.0,20.0,64,-99.99,,,-99.99,,2013-05-07 04:42:00,
2013-05-06 22:52:00,46.0,34.0,-100.00,SW,227,12.0,21.0,61,-99.99,,,-99.99,,2013-05-07 04:52:00,
2013-05-06 23:02:00,47.0,33.0,-100.00,WSW,243,15.0,20.0,59,-99.99,,,-99.99,,2013-05-07 05:02:00,
2013-05-06 23:12:00,46.0,34.0,-100.00,WSW,250,13.0,20.0,60,-99.99,,,-99.99,,2013-05-07 05:12:00,
2013-05-06 23:22:00,46.0,33.0,-100.00,West,270,16.0,24.0,59,-99.99,,,-99.99,,2013-05-07 05:22:00,
2013-05-06 23:32:00,46.0,33.0,-100.00,West,261,17.0,24.0,60,-99.99,,,-99.99,,2013-05-07 05:32:00,
2013-05-06 23:42:00,46.0,34.0,-100.00,West,268,18.0,29.0,61,-99.99,,,-99.99,,2013-05-07 05:42:00,
2013-05-06 23:51:00,46.0,34.0,-100.00,West,272,21.0,32.0,63,-99.99,,,-99.99,,2013-05-07 05:51:00,